Dades meteomassalio
Diari Summary for Noviembre 23, 2017 Units:  Metric    English   Both
« Previous Day
Next Day »
Diari Semanal Mensual Anual Personalitzat
  Maxima: Minima: Mijana:
Temperatura: 19.4 °C -1.1 °C 7 °C
Rosada: 7.2 °C -5.2 °C 0.4 °C
Humitat: 81 % 38 % 65 %
Velocitat del vent: 11.1 km/h 0.0 km/h 1 km/h
Racha vent: 11.1 km/h - -
Vent:- - SE
Pressio: 1023.2 hPa 1018.5 hPa -
Pluja: 0.0 mm    
Historical Graphs
 
 
Tabular Data for Noviembre 23, 2017
Time Temperature Dew Point Pressure Wind Wind Speed Wind Gust Humidity Rainfall Rate (Hourly) solar Conditions
00:06 -1.1 °C -5.2 °C 1019.2 hPa Calm     74 % 0.0 mm 0.0 W/m2 CLR
00:11 -1.1 °C -4.8 °C 1019.2 hPa Calm     76 % 0.0 mm 0.0 W/m2 CLR
00:16 -1.1 °C -4.8 °C 1019.2 hPa Calm     76 % 0.0 mm 0.0 W/m2 CLR
00:21 -1.1 °C -5.0 °C 1019.2 hPa Calm     75 % 0.0 mm 0.0 W/m2 CLR
00:26 -1.1 °C -5.0 °C 1019.2 hPa Calm     75 % 0.0 mm 0.0 W/m2 CLR
00:31 -1.1 °C -5.0 °C 1019.2 hPa Calm     75 % 0.0 mm 0.0 W/m2 CLR
00:36 -1.1 °C -5.0 °C 1019.2 hPa Calm     75 % 0.0 mm 0.0 W/m2 CLR
00:41 -1.1 °C -5.0 °C 1019.2 hPa Calm     75 % 0.0 mm 0.0 W/m2 CLR
00:51 -0.6 °C -4.1 °C 1019.2 hPa Calm     77 % 0.0 mm 0.0 W/m2 CLR
00:56 -0.6 °C -3.9 °C 1019.2 hPa Calm     78 % 0.0 mm 0.0 W/m2 CLR
01:01 0.0 °C -3.7 °C 1019.2 hPa Calm     76 % 0.0 mm 0.0 W/m2 CLR
01:06 -0.6 °C -4.3 °C 1019.2 hPa Calm     76 % 0.0 mm 0.0 W/m2 CLR
01:11 -0.6 °C -4.1 °C 1019.2 hPa Calm     77 % 0.0 mm 0.0 W/m2 CLR
01:16 -0.6 °C -4.1 °C 1018.8 hPa Calm     77 % 0.0 mm 0.0 W/m2 CLR
01:26 0.0 °C -3.6 °C 1018.5 hPa Calm     77 % 0.0 mm 0.0 W/m2 CLR
01:31 0.0 °C -3.2 °C 1018.5 hPa Calm     79 % 0.0 mm 0.0 W/m2 CLR
01:36 0.0 °C -3.7 °C 1018.5 hPa Calm     76 % 0.0 mm 0.0 W/m2 CLR
01:41 -0.6 °C -4.1 °C 1018.5 hPa Calm     77 % 0.0 mm 0.0 W/m2 CLR
01:51 -0.6 °C -3.9 °C 1018.5 hPa Calm     78 % 0.0 mm 0.0 W/m2 CLR
01:56 -0.6 °C -3.8 °C 1018.5 hPa Calm     79 % 0.0 mm 0.0 W/m2 CLR
02:01 -0.6 °C -3.8 °C 1018.5 hPa Calm     79 % 0.0 mm 0.0 W/m2 CLR
02:06 0.0 °C -3.2 °C 1018.5 hPa Calm     79 % 0.0 mm 0.0 W/m2 CLR
02:11 0.0 °C -3.2 °C 1018.5 hPa Calm     79 % 0.0 mm 0.0 W/m2 CLR
02:12 0.0 °C -3.2 °C 1018.8 hPa Calm     79 % 0.0 mm 0.0 W/m2 CLR
02:17 0.0 °C -3.2 °C 1018.8 hPa Calm     79 % 0.0 mm 0.0 W/m2 CLR
02:27 -0.6 °C -3.8 °C 1018.8 hPa Calm     79 % 0.0 mm 0.0 W/m2 CLR
02:32 -0.6 °C -3.6 °C 1018.8 hPa Calm     80 % 0.0 mm 0.0 W/m2 CLR
02:37 0.0 °C -3.2 °C 1018.8 hPa Calm     79 % 0.0 mm 0.0 W/m2 CLR
02:57 -0.6 °C -3.6 °C 1019.2 hPa Calm     80 % 0.0 mm 0.0 W/m2 CLR
03:02 -0.6 °C -3.4 °C 1019.2 hPa Calm     81 % 0.0 mm 0.0 W/m2 CLR
03:12 -1.1 °C -3.9 °C 1019.2 hPa Calm     81 % 0.0 mm 0.0 W/m2 CLR
03:17 -1.1 °C -4.1 °C 1019.2 hPa Calm     80 % 0.0 mm 0.0 W/m2 CLR
03:22 -0.6 °C -3.4 °C 1019.2 hPa Calm     81 % 0.0 mm 0.0 W/m2 CLR
03:27 -1.1 °C -4.1 °C 1019.2 hPa Calm     80 % 0.0 mm 0.0 W/m2 CLR
03:32 -1.1 °C -4.1 °C 1019.2 hPa Calm     80 % 0.0 mm 0.0 W/m2 CLR
03:37 -1.1 °C -4.3 °C 1019.2 hPa Calm     79 % 0.0 mm 0.0 W/m2 CLR
03:47 -1.1 °C -4.1 °C 1019.2 hPa Calm     80 % 0.0 mm 0.0 W/m2 CLR
03:57 -1.1 °C -3.9 °C 1019.2 hPa Calm     81 % 0.0 mm 0.0 W/m2 CLR
04:02 -1.1 °C -3.9 °C 1019.2 hPa Calm     81 % 0.0 mm 0.0 W/m2 CLR
04:07 -0.6 °C -3.6 °C 1019.2 hPa Calm     80 % 0.0 mm 0.0 W/m2 CLR
04:12 -0.6 °C -3.4 °C 1019.2 hPa Calm     81 % 0.0 mm 0.0 W/m2 CLR
04:19 0.0 °C -3.1 °C 1019.2 hPa Calm     80 % 0.0 mm 0.0 W/m2 CLR
04:20 0.0 °C -3.1 °C 1019.2 hPa Calm     80 % 0.0 mm 0.0 W/m2 CLR
04:23 0.0 °C -3.1 °C 1019.2 hPa Calm     80 % 0.0 mm 0.0 W/m2 CLR
04:25 0.0 °C -3.2 °C 1019.2 hPa Calm     79 % 0.0 mm 0.0 W/m2 CLR
04:27 0.0 °C -3.2 °C 1019.2 hPa Calm     79 % 0.0 mm 0.0 W/m2 CLR
04:32 0.0 °C -3.4 °C 1019.2 hPa Calm     78 % 0.0 mm 0.0 W/m2 CLR
04:33 0.0 °C -3.4 °C 1019.2 hPa Calm     78 % 0.0 mm 0.0 W/m2 CLR
04:38 0.0 °C -3.2 °C 1019.2 hPa Calm     79 % 0.0 mm 0.0 W/m2 CLR
04:48 0.0 °C -3.4 °C 1019.2 hPa Calm     78 % 0.0 mm 0.0 W/m2 CLR
05:03 -0.6 °C -3.6 °C 1019.2 hPa Calm     80 % 0.0 mm 0.0 W/m2 CLR
05:13 -0.6 °C -3.6 °C 1019.2 hPa Calm     80 % 0.0 mm 0.0 W/m2 CLR
05:18 -0.6 °C -3.8 °C 1019.2 hPa Calm     79 % 0.0 mm 0.0 W/m2 CLR
05:28 -0.6 °C -3.8 °C 1019.2 hPa Calm     79 % 0.0 mm 0.0 W/m2 CLR
05:33 0.0 °C -3.1 °C 1019.2 hPa Calm     80 % 0.0 mm 0.0 W/m2 CLR
05:38 0.0 °C -3.2 °C 1019.2 hPa Calm     79 % 0.0 mm 0.0 W/m2 CLR
05:43 0.6 °C -2.7 °C 1019.5 hPa Calm     79 % 0.0 mm 0.0 W/m2 CLR
05:48 0.6 °C -2.5 °C 1019.5 hPa Calm     80 % 0.0 mm 0.0 W/m2 CLR
05:53 0.6 °C -2.5 °C 1019.2 hPa Calm     80 % 0.0 mm 0.0 W/m2 CLR
06:13 1.1 °C -2.3 °C 1019.5 hPa Calm     78 % 0.0 mm 0.0 W/m2 CLR
06:18 1.1 °C -2.3 °C 1019.5 hPa Calm     78 % 0.0 mm 0.0 W/m2 CLR
06:23 1.1 °C -2.1 °C 1019.9 hPa Calm     79 % 0.0 mm 0.0 W/m2 CLR
06:28 1.1 °C -2.1 °C 1019.9 hPa Calm     79 % 0.0 mm 0.0 W/m2 CLR
06:33 1.1 °C -2.7 °C 1019.9 hPa Calm     76 % 0.0 mm 0.0 W/m2 CLR
06:43 1.1 °C -2.7 °C 1019.9 hPa Calm     76 % 0.0 mm 0.0 W/m2 CLR
06:48 1.1 °C -2.5 °C 1019.9 hPa Calm     77 % 0.0 mm 0.0 W/m2 CLR
06:49 1.1 °C -2.5 °C 1019.9 hPa Calm     77 % 0.0 mm 0.0 W/m2 CLR
06:59 1.1 °C -2.7 °C 1019.9 hPa Calm     76 % 0.0 mm 0.0 W/m2 CLR
07:04 1.1 °C -2.8 °C 1020.2 hPa Calm     75 % 0.0 mm 0.0 W/m2 CLR
07:09 1.1 °C -2.7 °C 1020.2 hPa Calm     76 % 0.0 mm 0.0 W/m2 CLR
07:14 0.6 °C -3.2 °C 1020.2 hPa Calm     76 % 0.0 mm 0.0 W/m2 CLR
07:19 0.6 °C -3.2 °C 1020.2 hPa Calm     76 % 0.0 mm 0.0 W/m2 CLR
07:24 0.6 °C -3.0 °C 1020.2 hPa Calm     77 % 0.0 mm 0.0 W/m2 CLR
07:29 1.1 °C -2.5 °C 1020.2 hPa Calm     77 % 0.0 mm 0.0 W/m2 CLR
07:34 1.1 °C -2.5 °C 1020.2 hPa Calm     77 % 0.0 mm 0.0 W/m2 CLR
07:39 1.1 °C -2.5 °C 1020.2 hPa Calm     77 % 0.0 mm 0.0 W/m2 CLR
07:44 1.1 °C -2.7 °C 1020.2 hPa Calm     76 % 0.0 mm 0.0 W/m2 CLR
07:49 1.1 °C -2.7 °C 1020.2 hPa Calm     76 % 0.0 mm 0.0 W/m2 OVC
07:54 1.1 °C -2.3 °C 1020.2 hPa Calm     78 % 0.0 mm 9.0 W/m2 OVC
08:00 1.1 °C -2.5 °C 1020.2 hPa Calm     77 % 0.0 mm 11.0 W/m2 BKN
08:05 1.1 °C -2.5 °C 1020.2 hPa Calm     77 % 0.0 mm 9.0 W/m2 BKN
08:10 1.1 °C -2.7 °C 1020.2 hPa Calm     76 % 0.0 mm 12.0 W/m2 BKN
08:15 1.7 °C -2.3 °C 1020.2 hPa Calm     75 % 0.0 mm 21.0 W/m2 BKN
08:20 1.7 °C -2.3 °C 1020.2 hPa Calm     75 % 0.0 mm 33.0 W/m2 BKN
08:25 1.7 °C -2.3 °C 1020.5 hPa Calm     75 % 0.0 mm 42.0 W/m2 BKN
08:30 1.7 °C -2.3 °C 1020.5 hPa Calm     75 % 0.0 mm 49.0 W/m2 SCT
08:35 1.7 °C -2.5 °C 1020.5 hPa Calm     74 % 0.0 mm 53.0 W/m2 SCT
08:40 2.2 °C -2.1 °C 1020.5 hPa Calm     73 % 0.0 mm 62.0 W/m2 SCT
08:45 2.8 °C -1.4 °C 1020.5 hPa Calm     74 % 0.0 mm 81.0 W/m2 FEW
08:50 2.8 °C -1.6 °C 1020.5 hPa Calm     73 % 0.0 mm 72.0 W/m2 FEW
09:00 3.3 °C -1.2 °C 1020.5 hPa Calm     72 % 0.0 mm 90.0 W/m2 CLR
09:05 3.9 °C -0.9 °C 1020.9 hPa Calm     71 % 0.0 mm 134.0 W/m2 CLR
09:10 4.4 °C -0.8 °C 1020.9 hPa Calm     69 % 0.0 mm 134.0 W/m2 CLR
09:15 5.6 °C 0.3 °C 1020.5 hPa Calm     69 % 0.0 mm 174.0 W/m2 CLR
09:20 5.6 °C -0.1 °C 1020.5 hPa Calm     67 % 0.0 mm 86.0 W/m2 CLR
09:25 5.6 °C -0.5 °C 1020.5 hPa Calm     65 % 0.0 mm 95.0 W/m2 CLR
09:35 6.1 °C -0.2 °C 1020.9 hPa Calm     64 % 0.0 mm 142.0 W/m2 CLR
09:45 7.2 °C 0.2 °C 1020.9 hPa Calm     61 % 0.0 mm 144.0 W/m2 CLR
09:55 8.3 °C 1.0 °C 1020.9 hPa Calm     60 % 0.0 mm 156.0 W/m2 CLR
10:00 8.3 °C 0.8 °C 1020.5 hPa Calm     59 % 0.0 mm 162.0 W/m2 CLR
10:05 8.9 °C 1.6 °C 1020.9 hPa Calm     60 % 0.0 mm 141.0 W/m2 CLR
10:10 8.9 °C 1.3 °C 1020.9 hPa Calm     59 % 0.0 mm 105.0 W/m2 CLR
10:20 9.4 °C 1.3 °C 1021.2 hPa Calm     57 % 0.0 mm 111.0 W/m2 CLR
10:30 10.0 °C 1.6 °C 1021.2 hPa Calm     56 % 0.0 mm 120.0 W/m2 CLR
10:35 10.0 °C 1.4 °C 1021.2 hPa Calm     55 % 0.0 mm 128.0 W/m2 CLR
10:40 10.6 °C 1.9 °C 1021.6 hPa Calm     55 % 0.0 mm 149.0 W/m2 CLR
10:50 11.1 °C 1.6 °C 1021.6 hPa Calm     52 % 0.0 mm 158.0 W/m2 CLR
11:00 11.7 °C 1.8 °C 1021.9 hPa Calm     51 % 0.0 mm 132.0 W/m2 CLR
11:15 10.6 °C 1.9 °C 1021.9 hPa East 5.6 km/h 5.6 km/h 55 % 0.0 mm 144.0 W/m2 CLR
11:25 10.6 °C 2.1 °C 1021.9 hPa East 9.3 km/h 9.3 km/h 56 % 0.0 mm 223.0 W/m2 CLR
11:35 11.1 °C 2.9 °C 1021.9 hPa East 1.9 km/h   57 % 0.0 mm 211.0 W/m2 CLR
11:40 11.1 °C 2.9 °C 1021.9 hPa East 7.4 km/h 7.4 km/h 57 % 0.0 mm 290.0 W/m2 CLR
11:45 11.7 °C 3.4 °C 1021.9 hPa Calm     57 % 0.0 mm 329.0 W/m2 CLR
12:00 12.2 °C 3.4 °C 1021.9 hPa East 5.6 km/h 5.6 km/h 55 % 0.0 mm 334.0 W/m2 CLR
12:05 12.2 °C 3.4 °C 1021.9 hPa ENE 5.6 km/h 5.6 km/h 55 % 0.0 mm 262.0 W/m2 CLR
12:10 12.2 °C 3.4 °C 1021.9 hPa East 3.7 km/h 3.7 km/h 55 % 0.0 mm 633.0 W/m2 CLR
12:15 12.8 °C 3.7 °C 1021.9 hPa Calm     54 % 0.0 mm 489.0 W/m2 CLR
12:20 12.8 °C 3.7 °C 1021.9 hPa East 3.7 km/h 3.7 km/h 54 % 0.0 mm 278.0 W/m2 CLR
12:25 12.8 °C 3.4 °C 1021.9 hPa Calm     53 % 0.0 mm 374.0 W/m2 CLR
12:30 13.3 °C 3.9 °C 1021.6 hPa Calm     53 % 0.0 mm 506.0 W/m2 CLR
12:35 13.3 °C 3.4 °C 1021.6 hPa East 1.9 km/h   51 % 0.0 mm 471.0 W/m2 CLR
12:40 13.9 °C 3.6 °C 1021.6 hPa Calm     50 % 0.0 mm 459.0 W/m2 CLR
12:45 14.4 °C 3.8 °C 1021.6 hPa Calm     49 % 0.0 mm 459.0 W/m2 CLR
12:50 14.4 °C 3.6 °C 1021.2 hPa Calm     48 % 0.0 mm 461.0 W/m2 CLR
12:55 14.4 °C 3.3 °C 1021.2 hPa Calm     47 % 0.0 mm 473.0 W/m2 CLR
12:57 14.4 °C 2.9 °C 1021.2 hPa Calm     46 % 0.0 mm 422.0 W/m2 CLR
13:02 15.0 °C 3.2 °C 1021.2 hPa Calm     45 % 0.0 mm 452.0 W/m2 CLR
13:07 15.0 °C 3.2 °C 1021.2 hPa East 7.4 km/h 7.4 km/h 45 % 0.0 mm 478.0 W/m2 CLR
13:12 15.0 °C 3.2 °C 1020.9 hPa ESE 3.2 km/h 3.2 km/h 45 % 0.0 mm 483.0 W/m2 CLR
13:17 15.6 °C 3.0 °C 1020.9 hPa East 5.6 km/h 5.6 km/h 43 % 0.0 mm 388.0 W/m2 CLR
13:22 16.1 °C 3.5 °C 1020.9 hPa East 3.7 km/h 3.7 km/h 43 % 0.0 mm 541.0 W/m2 CLR
13:27 16.1 °C 2.8 °C 1020.9 hPa East 3.7 km/h   41 % 0.0 mm 522.0 W/m2 CLR
13:32 16.7 °C 3.3 °C 1020.9 hPa East 3.7 km/h   41 % 0.0 mm 506.0 W/m2 CLR
13:42 17.8 °C 3.6 °C 1020.9 hPa ENE 5.6 km/h 5.6 km/h 39 % 0.0 mm 640.0 W/m2 CLR
13:47 18.3 °C 3.8 °C 1020.5 hPa East 7.4 km/h 7.4 km/h 38 % 0.0 mm 515.0 W/m2 CLR
13:52 18.3 °C 3.8 °C 1020.5 hPa ESE 7.4 km/h 7.4 km/h 38 % 0.0 mm 605.0 W/m2 CLR
13:57 18.3 °C 3.8 °C 1020.5 hPa Calm     38 % 0.0 mm 522.0 W/m2 CLR
14:07 18.3 °C 3.8 °C 1020.5 hPa ENE 5.6 km/h 5.6 km/h 38 % 0.0 mm 439.0 W/m2 CLR
14:17 18.3 °C 3.8 °C 1020.5 hPa East 9.7 km/h 9.7 km/h 38 % 0.0 mm 422.0 W/m2 CLR
14:32 18.3 °C 4.8 °C 1020.2 hPa East 7.4 km/h 7.4 km/h 41 % 0.0 mm 420.0 W/m2 CLR
14:47 17.8 °C 4.3 °C 1020.2 hPa East 6.4 km/h 6.4 km/h 41 % 0.0 mm 178.0 W/m2 CLR
14:52 17.8 °C 5.0 °C 1020.2 hPa ENE 5.6 km/h 5.6 km/h 43 % 0.0 mm 476.0 W/m2 CLR
14:57 18.3 °C 5.5 °C 1020.2 hPa East 5.6 km/h 5.6 km/h 43 % 0.0 mm 211.0 W/m2 CLR
15:07 18.3 °C 6.5 °C 1020.2 hPa Calm     46 % 0.0 mm 468.0 W/m2 CLR
15:12 18.3 °C 6.2 °C 1020.2 hPa Calm     45 % 0.0 mm 450.0 W/m2 CLR
15:17 18.9 °C 7.0 °C 1020.2 hPa Calm     46 % 0.0 mm 404.0 W/m2 CLR
15:22 18.9 °C 6.7 °C 1019.9 hPa Calm     45 % 0.0 mm 185.0 W/m2 CLR
15:32 18.9 °C 7.0 °C 1019.9 hPa Calm     46 % 0.0 mm 338.0 W/m2 CLR
15:37 18.9 °C 7.0 °C 1020.2 hPa Calm     46 % 0.0 mm 316.0 W/m2 CLR
15:42 19.4 °C 7.2 °C 1020.2 hPa Calm     45 % 0.0 mm 257.0 W/m2 CLR
15:47 19.4 °C 7.2 °C 1020.2 hPa Calm     45 % 0.0 mm 227.0 W/m2 CLR
15:57 18.9 °C 6.4 °C 1020.2 hPa Calm     44 % 0.0 mm 141.0 W/m2 CLR
16:02 18.3 °C 5.8 °C 1020.2 hPa Calm     44 % 0.0 mm 70.0 W/m2 CLR
16:07 18.3 °C 5.8 °C 1020.2 hPa East 3.7 km/h 3.7 km/h 44 % 0.0 mm 156.0 W/m2 CLR
16:12 17.8 °C 5.7 °C 1020.2 hPa Calm     45 % 0.0 mm 195.0 W/m2 CLR
16:13 17.8 °C 5.7 °C 1020.2 hPa Calm     45 % 0.0 mm 197.0 W/m2 CLR
16:18 17.8 °C 6.0 °C 1020.2 hPa East 1.9 km/h 1.9 km/h 46 % 0.0 mm 141.0 W/m2 CLR
16:23 17.8 °C 6.6 °C 1020.2 hPa ENE 5.6 km/h 5.6 km/h 48 % 0.0 mm 77.0 W/m2 CLR
16:28 17.8 °C 6.6 °C 1020.2 hPa ENE 5.6 km/h 5.6 km/h 48 % 0.0 mm 116.0 W/m2 CLR
16:33 17.2 °C 6.4 °C 1020.5 hPa Calm     49 % 0.0 mm 111.0 W/m2 CLR
16:38 16.7 °C 5.9 °C 1020.5 hPa Calm     49 % 0.0 mm 62.0 W/m2 FEW
16:43 16.1 °C 5.7 °C 1020.5 hPa Calm     50 % 0.0 mm 62.0 W/m2 SCT
16:48 16.1 °C 5.7 °C 1020.5 hPa Calm     50 % 0.0 mm 60.0 W/m2 SCT
16:53 16.1 °C 5.9 °C 1020.9 hPa ENE 1.6 km/h 1.6 km/h 51 % 0.0 mm 39.0 W/m2 BKN
16:58 15.6 °C 5.4 °C 1020.9 hPa ENE 5.6 km/h 5.6 km/h 51 % 0.0 mm 26.0 W/m2 BKN
17:03 15.6 °C 5.7 °C 1020.9 hPa Calm     52 % 0.0 mm 25.0 W/m2 BKN
17:08 15.6 °C 5.7 °C 1020.9 hPa Calm     52 % 0.0 mm 12.0 W/m2 BKN
17:23 15.6 °C 6.8 °C 1021.2 hPa Calm     56 % 0.0 mm 5.0 W/m2 OVC
17:33 15.0 °C 6.6 °C 1021.2 hPa Calm     57 % 0.0 mm 0.0 W/m2 OVC
17:38 15.0 °C 6.8 °C 1021.2 hPa Calm     58 % 0.0 mm 0.0 W/m2 OVC
17:43 14.4 °C 6.3 °C 1021.2 hPa Calm     58 % 0.0 mm 0.0 W/m2 OVC
17:53 13.9 °C 6.0 °C 1021.6 hPa Calm     59 % 0.0 mm 0.0 W/m2 CLR
17:56 13.9 °C 6.0 °C 1021.6 hPa Calm     59 % 0.0 mm 0.0 W/m2 CLR
18:01 13.9 °C 6.2 °C 1021.6 hPa Calm     60 % 0.0 mm 0.0 W/m2 CLR
18:06 13.3 °C 5.7 °C 1021.6 hPa Calm     60 % 0.0 mm 0.0 W/m2 CLR
18:11 13.3 °C 5.7 °C 1021.6 hPa Calm     60 % 0.0 mm 0.0 W/m2 CLR
18:16 12.8 °C 5.2 °C 1021.6 hPa Calm     60 % 0.0 mm 0.0 W/m2 CLR
18:21 12.2 °C 4.7 °C 1021.6 hPa Calm     60 % 0.0 mm 0.0 W/m2 CLR
18:26 12.2 °C 4.9 °C 1021.6 hPa Calm     61 % 0.0 mm 0.0 W/m2 CLR
18:41 11.1 °C 4.3 °C 1021.9 hPa Calm     63 % 0.0 mm 0.0 W/m2 CLR
18:46 10.6 °C 3.6 °C 1021.9 hPa Calm     62 % 0.0 mm 0.0 W/m2 CLR
18:51 11.1 °C 4.6 °C 1021.9 hPa Calm     64 % 0.0 mm 0.0 W/m2 CLR
19:01 10.6 °C 4.0 °C 1021.9 hPa Calm     64 % 0.0 mm 0.0 W/m2 CLR
19:06 10.6 °C 4.0 °C 1021.9 hPa West 1.9 km/h 1.9 km/h 64 % 0.0 mm 0.0 W/m2 CLR
19:11 10.0 °C 3.7 °C 1021.9 hPa West 7.4 km/h 7.4 km/h 65 % 0.0 mm 0.0 W/m2 CLR
19:21 9.4 °C 2.9 °C 1022.2 hPa Calm     64 % 0.0 mm 0.0 W/m2 CLR
19:31 8.9 °C 2.7 °C 1022.2 hPa Calm     65 % 0.0 mm 0.0 W/m2 CLR
19:41 8.3 °C 2.6 °C 1022.2 hPa Calm     67 % 0.0 mm 0.0 W/m2 CLR
19:46 8.9 °C 3.1 °C 1022.2 hPa Calm     67 % 0.0 mm 0.0 W/m2 CLR
19:56 8.9 °C 2.7 °C 1022.2 hPa WSW 11.1 km/h 11.1 km/h 65 % 0.0 mm 0.0 W/m2 CLR
20:01 8.9 °C 2.7 °C 1022.2 hPa Calm     65 % 0.0 mm 0.0 W/m2 CLR
20:06 8.3 °C 2.1 °C 1022.2 hPa SW 3.7 km/h   65 % 0.0 mm 0.0 W/m2 CLR
20:16 7.8 °C 1.8 °C 1022.6 hPa West 1.9 km/h 1.9 km/h 66 % 0.0 mm 0.0 W/m2 CLR
20:21 7.8 °C 2.1 °C 1022.6 hPa WNW 5.6 km/h 5.6 km/h 67 % 0.0 mm 0.0 W/m2 CLR
20:26 7.2 °C 1.3 °C 1022.6 hPa Calm     66 % 0.0 mm 0.0 W/m2 CLR
20:31 6.7 °C 0.6 °C 1022.6 hPa Calm     65 % 0.0 mm 0.0 W/m2 CLR
20:41 6.7 °C 0.9 °C 1022.6 hPa WSW 7.4 km/h 7.4 km/h 67 % 0.0 mm 0.0 W/m2 CLR
20:46 6.7 °C 0.6 °C 1022.6 hPa WSW 11.1 km/h 11.1 km/h 65 % 0.0 mm 0.0 W/m2 CLR
20:51 6.7 °C 0.3 °C 1022.6 hPa WSW 1.9 km/h 1.9 km/h 64 % 0.0 mm 0.0 W/m2 CLR
21:01 6.1 °C -0.2 °C 1022.9 hPa Calm     64 % 0.0 mm 0.0 W/m2 CLR
21:06 6.1 °C -0.2 °C 1022.6 hPa Calm     64 % 0.0 mm 0.0 W/m2 CLR
21:11 6.7 °C 0.8 °C 1022.6 hPa Calm     66 % 0.0 mm 0.0 W/m2 CLR
21:16 6.1 °C 0.4 °C 1022.6 hPa Calm     67 % 0.0 mm 0.0 W/m2 CLR
21:22 6.1 °C 0.8 °C 1022.9 hPa West 11.1 km/h 11.1 km/h 69 % 0.0 mm 0.0 W/m2 CLR
21:32 5.6 °C 0.1 °C 1022.9 hPa Calm     68 % 0.0 mm 0.0 W/m2 CLR
21:37 5.6 °C 0.1 °C 1022.9 hPa Calm     68 % 0.0 mm 0.0 W/m2 CLR
21:42 5.6 °C 0.3 °C 1022.9 hPa Calm     69 % 0.0 mm 0.0 W/m2 CLR
21:52 5.6 °C 0.1 °C 1022.9 hPa NW 5.6 km/h 5.6 km/h 68 % 0.0 mm 0.0 W/m2 CLR
21:57 6.1 °C 0.8 °C 1022.9 hPa NW 5.6 km/h 5.6 km/h 69 % 0.0 mm 0.0 W/m2 CLR
22:02 5.6 °C 0.1 °C 1022.9 hPa Calm     68 % 0.0 mm 0.0 W/m2 CLR
22:12 5.0 °C -0.8 °C 1022.9 hPa Calm     66 % 0.0 mm 0.0 W/m2 CLR
22:17 5.0 °C -0.8 °C 1022.9 hPa Calm     66 % 0.0 mm 0.0 W/m2 CLR
22:22 4.4 °C -1.3 °C 1022.9 hPa Calm     66 % 0.0 mm 0.0 W/m2 CLR
22:27 3.9 °C -1.9 °C 1022.9 hPa Calm     66 % 0.0 mm 0.0 W/m2 CLR
22:32 3.9 °C -2.1 °C 1022.9 hPa Calm     65 % 0.0 mm 0.0 W/m2 CLR
22:42 4.4 °C -1.6 °C 1023.2 hPa Calm     65 % 0.0 mm 0.0 W/m2 CLR
22:57 3.9 °C -1.9 °C 1023.2 hPa Calm     66 % 0.0 mm 0.0 W/m2 CLR
23:17 3.9 °C -1.7 °C 1022.9 hPa Calm     67 % 0.0 mm 0.0 W/m2 CLR
23:22 3.9 °C -1.5 °C 1023.2 hPa Calm     68 % 0.0 mm 0.0 W/m2 CLR
23:27 3.9 °C -1.5 °C 1023.2 hPa Calm     68 % 0.0 mm 0.0 W/m2 CLR
23:32 4.4 °C -0.9 °C 1023.2 hPa Calm     68 % 0.0 mm 0.0 W/m2 CLR
23:37 5.0 °C -0.2 °C 1022.9 hPa Calm     69 % 0.0 mm 0.0 W/m2 CLR
23:42 5.0 °C 0.0 °C 1023.2 hPa Calm     70 % 0.0 mm 0.0 W/m2 CLR
Lo Temps de Massalio
Compliments of Weather Underground - 1 mb